QPF
0.07 0.12 0.16 0.14 0.13 0.13 0.12 0.14 0.28 0.25 0.17 0.12 0.12 0.12 0.09 0.08 0.08 0.09 0.08 0.07 0.06 0.07 0.06 0.06 0.06 0.05 0.05 0.07 0.07 0.07 0.09 0.08 0.06 0.06 0.08 0.09 0.10 0.09 0.08 0.10 0.11 0.07 0.05
0.06 0.10 0.14 0.15 0.15 0.14 0.16 0.26 0.29 0.17 0.11 0.11 0.11 0.11 0.08 0.07 0.07 0.08 0.07 0.08 0.06 0.06 0.06 0.06 0.05 0.04 0.03 0.05 0.08 0.11 0.13 0.11 0.08 0.07 0.08 0.10 0.12 0.10 0.10 0.11 0.08 0.04 0.03
0.06 0.08 0.09 0.11 0.17 0.26 0.28 0.26 0.17 0.12 0.12 0.10 0.08 0.09 0.08 0.06 0.06 0.07 0.08 0.08 0.07 0.06 0.06 0.06 0.04 0.04 0.03 0.03 0.05 0.11 0.14 0.10 0.09 0.08 0.08 0.07 0.08 0.10 0.12 0.13 0.09 0.05 0.04
0.05 0.07 0.06 0.12 0.19 0.21 0.16 0.11 0.11 0.09 0.08 0.08 0.08 0.10 0.13 0.09 0.07 0.07 0.07 0.06 0.05 0.05 0.04 0.05 0.04 0.05 0.04 0.03 0.03 0.05 0.07 0.06 0.08 0.06 0.06 0.06 0.06 0.09 0.12 0.11 0.10 0.07 0.04
0.04 0.06 0.06 0.06 0.08 0.09 0.07 0.06 0.07 0.06 0.07 0.07 0.07 0.09 0.14 0.15 0.10 0.09 0.07 0.05 0.04 0.03 0.04 0.05 0.05 0.04 0.03 0.03 0.03 0.04 0.05 0.06 0.06 0.04 0.04 0.04 0.04 0.08 0.10 0.09 0.08 0.07 0.05
0.02 0.04 0.05 0.05 0.05 0.05 0.05 0.05 0.06 0.06 0.05 0.06 0.06 0.05 0.07 0.10 0.11 0.10 0.07 0.04 0.02 0.03 0.03 0.06 0.05 0.03 0.03 0.03 0.03 0.04 0.05 0.07 0.05 0.04 0.04 0.03 0.04 0.06 0.08 0.09 0.09 0.07 0.05
0.02 0.04 0.05 0.04 0.04 0.04 0.05 0.05 0.06 0.06 0.05 0.04 0.05 0.05 0.04 0.05 0.07 0.09 0.10 0.05 0.02 0.02 0.04 0.05 0.03 0.03 0.03 0.03 0.03 0.03 0.03 0.04 0.04 0.04 0.04 0.03 0.03 0.05 0.07 0.09 0.10 0.07 0.05
0.02 0.03 0.04 0.05 0.05 0.04 0.05 0.05 0.04 0.05 0.03 0.03 0.04 0.05 0.05 0.05 0.06 0.06 0.08 0.07 0.03 0.03 0.04 0.03 0.03 0.03 0.04 0.03 0.03 0.03 0.03 0.03 0.03 0.03 0.03 0.02 0.04 0.05 0.07 0.09 0.09 0.08 0.06
0.02 0.03 0.04 0.05 0.05 0.05 0.05 0.05 0.04 0.04 0.03 0.02 0.04 0.04 0.06 0.06 0.06 0.05 0.05 0.06 0.05 0.03 0.02 0.02 0.03 0.04 0.06 0.05 0.05 0.05 0.04 0.04 0.03 0.02 0.01 0.02 0.04 0.05 0.09 0.11 0.09 0.07 0.06
0.03 0.05 0.08 0.08 0.07 0.05 0.04 0.05 0.04 0.04 0.03 0.02 0.04 0.05 0.08 0.06 0.04 0.04 0.04 0.05 0.05 0.03 0.02 0.03 0.04 0.04 0.05 0.06 0.05 0.06 0.04 0.03 0.01 0.01 0.02 0.02 0.03 0.04 0.10 0.10 0.09 0.06 0.05
0.07 0.10 0.12 0.09 0.08 0.05 0.04 0.05 0.06 0.05 0.04 0.04 0.05 0.07 0.08 0.06 0.04 0.03 0.03 0.05 0.06 0.05 0.05 0.06 0.07 0.06 0.06 0.05 0.05 0.06 0.03 0.01 0.01 0.01 0.01 0.02 0.03 0.06 0.09 0.09 0.07 0.05 0.03
0.13 0.14 0.14 0.10 0.08 0.07 0.06 0.05 0.04 0.03 0.04 0.04 0.05 0.06 0.06 0.06 0.05 0.04 0.05 0.06 0.06 0.08 0.10 0.11 0.12 0.08 0.06 0.03 0.04 0.05 0.02 0.01 0.01 0.01 0.02 0.02 0.03 0.05 0.09 0.15 0.13 0.08 0.05
0.15 0.15 0.13 0.09 0.07 0.05 0.05 0.04 0.03 0.03 0.04 0.04 0.04 0.04 0.04 0.05 0.04 0.07 0.08 0.09 0.09 0.11 0.10 0.12 0.14 0.07 0.05 0.03 0.02 0.02 0.03 0.02 0.02 0.02 0.02 0.03 0.04 0.06 0.10 0.20 0.19 0.11 0.08
0.11 0.09 0.08 0.09 0.07 0.06 0.05 0.05 0.04 0.03 0.03 0.02 0.04 0.04 0.04 0.04 0.03 0.06 0.10 0.11 0.13 0.13 0.11 0.11 0.14 0.07 0.04 0.04 0.03 0.04 0.04 0.04 0.05 0.06 0.05 0.03 0.03 0.05 0.09 0.16 0.13 0.09 0.09
0.03 0.03 0.03 0.05 0.05 0.04 0.04 0.03 0.03 0.03 0.03 0.03 0.05 0.04 0.04 0.04 0.04 0.05 0.09 0.12 0.12 0.10 0.09 0.08 0.10 0.08 0.05 0.04 0.03 0.04 0.05 0.04 0.05 0.07 0.07 0.06 0.05 0.05 0.08 0.10 0.10 0.11 0.11
0.02 0.02 0.01 0.02 0.03 0.03 0.02 0.02 0.04 0.04 0.05 0.05 0.04 0.03 0.03 0.03 0.02 0.03 0.05 0.08 0.08 0.07 0.07 0.06 0.06 0.07 0.05 0.04 0.03 0.03 0.05 0.08 0.08 0.07 0.05 0.06 0.06 0.04 0.06 0.09 0.10 0.13 0.14
0.02 0.02 0.01 0.02 0.02 0.03 0.03 0.03 0.05 0.06 0.06 0.05 0.04 0.03 0.03 0.03 0.03 0.02 0.02 0.04 0.05 0.06 0.06 0.05 0.05 0.06 0.05 0.04 0.04 0.04 0.05 0.07 0.08 0.08 0.05 0.04 0.04 0.04 0.05 0.06 0.07 0.10 0.11
0.01 0.01 0.01 0.01 0.02 0.03 0.03 0.04 0.05 0.09 0.10 0.07 0.06 0.05 0.03 0.03 0.03 0.03 0.03 0.04 0.04 0.05 0.05 0.05 0.04 0.05 0.04 0.04 0.04 0.03 0.03 0.04 0.05 0.08 0.07 0.05 0.05 0.05 0.05 0.05 0.05 0.05 0.07
0.01 0.02 0.01 0.01 0.02 0.02 0.02 0.03 0.05 0.11 0.13 0.10 0.08 0.06 0.04 0.04 0.05 0.05 0.05 0.05 0.03 0.03 0.03 0.03 0.03 0.03 0.02 0.03 0.02 0.02 0.02 0.02 0.02 0.04 0.05 0.05 0.06 0.05 0.04 0.05 0.05 0.05 0.10
0.01 0.02 0.01 0.02 0.02 0.01 0.01 0.01 0.04 0.05 0.06 0.07 0.08 0.07 0.06 0.06 0.05 0.05 0.04 0.03 0.02 0.03 0.03 0.03 0.02 0.02 0.02 0.02 0.02 0.01 0.02 0.02 0.03 0.04 0.04 0.03 0.04 0.04 0.06 0.06 0.07 0.06 0.06
0.01 0.01 0.01 0.02 0.01 0.00 0.00 0.01 0.02 0.02 0.02 0.03 0.04 0.05 0.04 0.05 0.05 0.04 0.03 0.02 0.02 0.03 0.03 0.02 0.02 0.02 0.02 0.03 0.01 0.01 0.01 0.02 0.04 0.05 0.05 0.04 0.05 0.06 0.08 0.09 0.08 0.06 0.06
0.01 0.01 0.01 0.01 0.01 0.00 0.00 0.01 0.01 0.02 0.02 0.01 0.01 0.02 0.03 0.04 0.05 0.03 0.02 0.02 0.02 0.03 0.02 0.02 0.01 0.02 0.02 0.02 0.01 0.01 0.01 0.01 0.02 0.05 0.05 0.04 0.05 0.07 0.10 0.12 0.10 0.06 0.05
0.02 0.01 0.02 0.01 0.01 0.00 0.00 0.01 0.01 0.02 0.01 0.01 0.01 0.01 0.01 0.02 0.02 0.02 0.02 0.01 0.02 0.04 0.03 0.01 0.02 0.01 0.01 0.02 0.02 0.01 0.01 0.01 0.02 0.03 0.03 0.03 0.04 0.04 0.06 0.08 0.09 0.09 0.07
0.04 0.03 0.05 0.03 0.01 0.01 0.01 0.01 0.01 0.01 0.01 0.01 0.01 0.01 0.01 0.02 0.02 0.02 0.01 0.01 0.01 0.02 0.02 0.01 0.01 0.01 0.01 0.02 0.02 0.01 0.01 0.01 0.01 0.02 0.03 0.03 0.02 0.02 0.02 0.03 0.04 0.05 0.06
0.03 0.03 0.05 0.06 0.02 0.02 0.02 0.01 0.00 0.00 0.01 0.01 0.01 0.01 0.00 0.01 0.02 0.02 0.02 0.01 0.02 0.02 0.02 0.02 0.01 0.01 0.01 0.02 0.02 0.02 0.02 0.01 0.01 0.01 0.02 0.02 0.02 0.01 0.01 0.01 0.01 0.02 0.05
0.01 0.01 0.02 0.03 0.02 0.02 0.02 0.01 0.00 0.01 0.01 0.01 0.01 0.01 0.01 0.01 0.02 0.02 0.02 0.01 0.02 0.03 0.03 0.02 0.01 0.01 0.01 0.01 0.02 0.03 0.02 0.01 0.02 0.02 0.01 0.01 0.02 0.01 0.00 0.00 0.00 0.01 0.04
MSLP
1011.79 1011.34 1011.03 1010.86 1010.76 1010.69 1010.60 1010.45 1010.26 1010.05 1009.84 1009.68 1009.56 1009.48 1009.39 1009.26 1009.06 1008.78 1008.44 1008.07 1007.71 1007.40 1007.18 1007.05 1006.99 1007.00 1007.07 1007.17 1007.31 1007.49 1007.72 1008.00 1008.32 1008.66 1009.03 1009.40 1009.80 1010.23 1010.71 1011.25 1011.85 1012.47 1013.07
1011.74 1011.36 1011.11 1011.00 1010.98 1010.97 1010.92 1010.79 1010.60 1010.36 1010.13 1009.96 1009.86 1009.83 1009.84 1009.83 1009.75 1009.59 1009.31 1008.97 1008.59 1008.23 1007.93 1007.73 1007.63 1007.62 1007.70 1007.83 1007.99 1008.18 1008.39 1008.63 1008.89 1009.18 1009.51 1009.89 1010.31 1010.78 1011.31 1011.87 1012.44 1013.00 1013.50
1011.69 1011.38 1011.20 1011.17 1011.21 1011.27 1011.28 1011.19 1011.01 1010.77 1010.52 1010.33 1010.23 1010.23 1010.29 1010.36 1010.39 1010.32 1010.14 1009.85 1009.49 1009.12 1008.78 1008.52 1008.37 1008.31 1008.35 1008.45 1008.59 1008.76 1008.96 1009.18 1009.44 1009.74 1010.10 1010.51 1010.98 1011.49 1012.03 1012.57 1013.09 1013.55 1013.92
1011.69 1011.44 1011.33 1011.36 1011.48 1011.61 1011.68 1011.64 1011.49 1011.25 1010.99 1010.78 1010.65 1010.64 1010.71 1010.82 1010.92 1010.94 1010.85 1010.64 1010.35 1010.02 1009.69 1009.42 1009.24 1009.14 1009.14 1009.20 1009.31 1009.47 1009.65 1009.88 1010.15 1010.49 1010.88 1011.32 1011.81 1012.32 1012.83 1013.30 1013.73 1014.07 1014.32
1011.78 1011.59 1011.53 1011.61 1011.79 1011.97 1012.10 1012.11 1011.99 1011.77 1011.50 1011.26 1011.09 1011.04 1011.09 1011.21 1011.33 1011.41 1011.40 1011.29 1011.09 1010.84 1010.58 1010.36 1010.19 1010.10 1010.09 1010.14 1010.24 1010.38 1010.56 1010.80 1011.09 1011.43 1011.83 1012.28 1012.74 1013.20 1013.62 1013.99 1014.29 1014.51 1014.65
1012.00 1011.84 1011.81 1011.92 1012.11 1012.33 1012.50 1012.54 1012.46 1012.26 1011.99 1011.73 1011.53 1011.44 1011.44 1011.53 1011.65 1011.76 1011.80 1011.77 1011.67 1011.53 1011.37 1011.23 1011.13 1011.09 1011.10 1011.17 1011.28 1011.42 1011.61 1011.85 1012.13 1012.47 1012.84 1013.23 1013.62 1013.98 1014.29 1014.53 1014.71 1014.83 1014.90
1012.35 1012.20 1012.16 1012.26 1012.45 1012.67 1012.84 1012.91 1012.86 1012.68 1012.43 1012.17 1011.95 1011.82 1011.78 1011.83 1011.92 1012.02 1012.09 1012.11 1012.09 1012.04 1011.98 1011.94 1011.93 1011.96 1012.03 1012.14 1012.28 1012.44 1012.63 1012.86 1013.13 1013.42 1013.74 1014.05 1014.33 1014.57 1014.76 1014.88 1014.96 1015.01 1015.07
1012.79 1012.62 1012.56 1012.63 1012.78 1012.96 1013.11 1013.19 1013.15 1013.00 1012.79 1012.55 1012.34 1012.20 1012.13 1012.14 1012.19 1012.26 1012.32 1012.36 1012.38 1012.39 1012.40 1012.43 1012.50 1012.60 1012.74 1012.89 1013.06 1013.25 1013.45 1013.66 1013.89 1014.14 1014.38 1014.60 1014.78 1014.92 1015.00 1015.04 1015.07 1015.10 1015.17
1013.25 1013.07 1012.98 1012.99 1013.08 1013.20 1013.31 1013.37 1013.33 1013.22 1013.05 1012.86 1012.69 1012.57 1012.50 1012.49 1012.51 1012.54 1012.56 1012.58 1012.58 1012.60 1012.64 1012.71 1012.82 1012.97 1013.15 1013.34 1013.54 1013.74 1013.94 1014.14 1014.34 1014.54 1014.72 1014.87 1014.98 1015.04 1015.07 1015.08 1015.10 1015.15 1015.27
1013.66 1013.48 1013.36 1013.33 1013.35 1013.41 1013.46 1013.47 1013.44 1013.35 1013.24 1013.11 1013.01 1012.94 1012.90 1012.89 1012.89 1012.89 1012.86 1012.83 1012.79 1012.77 1012.78 1012.84 1012.95 1013.11 1013.30 1013.51 1013.72 1013.93 1014.13 1014.33 1014.51 1014.67 1014.81 1014.93 1015.00 1015.05 1015.07 1015.09 1015.14 1015.25 1015.44
1013.98 1013.82 1013.70 1013.62 1013.59 1013.59 1013.58 1013.55 1013.50 1013.43 1013.36 1013.31 1013.29 1013.29 1013.31 1013.33 1013.33 1013.31 1013.24 1013.15 1013.05 1012.96 1012.92 1012.93 1013.00 1013.14 1013.31 1013.51 1013.73 1013.94 1014.14 1014.33 1014.50 1014.66 1014.80 1014.91 1014.99 1015.06 1015.12 1015.19 1015.30 1015.46 1015.70
1014.15 1014.04 1013.95 1013.88 1013.82 1013.76 1013.70 1013.63 1013.56 1013.50 1013.46 1013.47 1013.52 1013.60 1013.68 1013.76 1013.79 1013.76 1013.67 1013.54 1013.39 1013.24 1013.13 1013.08 1013.10 1013.19 1013.34 1013.52 1013.72 1013.92 1014.12 1014.31 1014.49 1014.66 1014.81 1014.94 1015.06 1015.18 1015.29 1015.43 1015.59 1015.80 1016.06
1014.19 1014.16 1014.12 1014.08 1014.02 1013.94 1013.84 1013.73 1013.64 1013.57 1013.55 1013.60 1013.70 1013.84 1013.99 1014.12 1014.19 1014.20 1014.12 1013.98 1013.80 1013.62 1013.47 1013.37 1013.35 1013.39 1013.50 1013.66 1013.84 1014.04 1014.23 1014.42 1014.60 1014.78 1014.95 1015.11 1015.27 1015.43 1015.60 1015.78 1015.98 1016.21 1016.47
1014.12 1014.17 1014.21 1014.22 1014.19 1014.12 1014.01 1013.88 1013.76 1013.68 1013.66 1013.71 1013.83 1014.01 1014.20 1014.38 1014.50 1014.55 1014.52 1014.41 1014.25 1014.08 1013.92 1013.81 1013.76 1013.79 1013.87 1014.01 1014.17 1014.35 1014.54 1014.72 1014.89 1015.07 1015.24 1015.42 1015.60 1015.79 1015.99 1016.20 1016.41 1016.62 1016.84
1013.98 1014.11 1014.22 1014.30 1014.32 1014.28 1014.19 1014.07 1013.94 1013.84 1013.80 1013.83 1013.94 1014.11 1014.31 1014.52 1014.69 1014.79 1014.82 1014.78 1014.68 1014.56 1014.44 1014.36 1014.32 1014.34 1014.42 1014.55 1014.70 1014.86 1015.03 1015.19 1015.34 1015.49 1015.65 1015.81 1015.98 1016.17 1016.36 1016.56 1016.75 1016.93 1017.10
1013.82 1014.00 1014.18 1014.32 1014.41 1014.42 1014.38 1014.28 1014.16 1014.05 1013.98 1013.97 1014.04 1014.17 1014.35 1014.56 1014.75 1014.90 1015.00 1015.04 1015.04 1015.00 1014.95 1014.92 1014.93 1014.98 1015.07 1015.19 1015.34 1015.48 1015.62 1015.74 1015.85 1015.96 1016.06 1016.17 1016.30 1016.45 1016.60 1016.77 1016.92 1017.06 1017.18
1013.68 1013.89 1014.10 1014.29 1014.43 1014.52 1014.54 1014.50 1014.42 1014.32 1014.23 1014.18 1014.18 1014.25 1014.38 1014.55 1014.74 1014.92 1015.08 1015.21 1015.29 1015.34 1015.39 1015.43 1015.49 1015.58 1015.69 1015.82 1015.96 1016.08 1016.19 1016.27 1016.33 1016.36 1016.39 1016.43 1016.48 1016.56 1016.66 1016.78 1016.90 1017.01 1017.10
1013.61 1013.79 1014.00 1014.22 1014.42 1014.58 1014.68 1014.73 1014.71 1014.64 1014.55 1014.46 1014.41 1014.40 1014.46 1014.57 1014.73 1014.92 1015.11 1015.30 1015.46 1015.60 1015.72 1015.83 1015.94 1016.07 1016.20 1016.33 1016.47 1016.58 1016.65 1016.69 1016.69 1016.65 1016.60 1016.55 1016.52 1016.52 1016.56 1016.63 1016.72 1016.81 1016.90
1013.60 1013.73 1013.91 1014.13 1014.37 1014.60 1014.80 1014.94 1015.01 1015.01 1014.94 1014.84 1014.74 1014.66 1014.63 1014.68 1014.78 1014.95 1015.15 1015.37 1015.58 1015.78 1015.95 1016.11 1016.26 1016.41 1016.56 1016.70 1016.83 1016.93 1016.98 1016.98 1016.93 1016.83 1016.71 1016.57 1016.46 1016.39 1016.36 1016.39 1016.47 1016.57 1016.67
1013.64 1013.71 1013.84 1014.04 1014.31 1014.61 1014.90 1015.15 1015.33 1015.40 1015.39 1015.30 1015.16 1015.03 1014.93 1014.90 1014.95 1015.08 1015.26 1015.48 1015.71 1015.93 1016.14 1016.32 1016.48 1016.64 1016.79 1016.94 1017.06 1017.16 1017.21 1017.20 1017.11 1016.97 1016.79 1016.59 1016.40 1016.26 1016.19 1016.18 1016.25 1016.36 1016.51
1013.72 1013.73 1013.81 1013.99 1014.26 1014.61 1014.99 1015.34 1015.62 1015.80 1015.85 1015.78 1015.65 1015.48 1015.33 1015.24 1015.24 1015.32 1015.47 1015.68 1015.90 1016.12 1016.32 1016.49 1016.65 1016.80 1016.95 1017.10 1017.24 1017.34 1017.40 1017.39 1017.31 1017.15 1016.93 1016.68 1016.44 1016.24 1016.12 1016.09 1016.14 1016.27 1016.45
1013.80 1013.77 1013.81 1013.96 1014.23 1014.62 1015.06 1015.50 1015.87 1016.14 1016.26 1016.24 1016.12 1015.95 1015.77 1015.65 1015.60 1015.64 1015.77 1015.95 1016.15 1016.35 1016.53 1016.69 1016.83 1016.96 1017.10 1017.25 1017.40 1017.53 1017.62 1017.64 1017.57 1017.41 1017.18 1016.91 1016.63 1016.39 1016.22 1016.15 1016.18 1016.31 1016.51
1013.85 1013.80 1013.82 1013.96 1014.23 1014.62 1015.10 1015.60 1016.05 1016.38 1016.57 1016.60 1016.51 1016.35 1016.17 1016.03 1015.96 1015.99 1016.09 1016.25 1016.44 1016.62 1016.77 1016.91 1017.02 1017.14 1017.27 1017.43 1017.59 1017.76 1017.88 1017.94 1017.91 1017.78 1017.55 1017.26 1016.96 1016.67 1016.46 1016.34 1016.34 1016.44 1016.63
1013.82 1013.81 1013.83 1013.96 1014.22 1014.61 1015.10 1015.63 1016.11 1016.49 1016.72 1016.80 1016.74 1016.60 1016.44 1016.31 1016.24 1016.27 1016.37 1016.53 1016.70 1016.87 1017.01 1017.13 1017.22 1017.32 1017.45 1017.61 1017.79 1017.98 1018.15 1018.26 1018.27 1018.17 1017.96 1017.67 1017.35 1017.03 1016.76 1016.59 1016.53 1016.59 1016.73
1013.72 1013.76 1013.81 1013.93 1014.19 1014.57 1015.05 1015.57 1016.06 1016.45 1016.71 1016.81 1016.78 1016.67 1016.53 1016.42 1016.38 1016.42 1016.54 1016.71 1016.89 1017.06 1017.19 1017.29 1017.38 1017.46 1017.58 1017.74 1017.93 1018.15 1018.35 1018.49 1018.55 1018.48 1018.30 1018.02 1017.69 1017.34 1017.03 1016.81 1016.69 1016.68 1016.77
1013.52 1013.63 1013.72 1013.86 1014.11 1014.47 1014.92 1015.42 1015.89 1016.28 1016.53 1016.65 1016.64 1016.55 1016.45 1016.37 1016.36 1016.43 1016.57 1016.76 1016.96 1017.13 1017.27 1017.36 1017.43 1017.51 1017.61 1017.76 1017.95 1018.18 1018.40 1018.57 1018.65 1018.62 1018.47 1018.21 1017.88 1017.53 1017.19 1016.92 1016.75 1016.69 1016.73
Thickness
5776 5780 5782 5783 5782 5782 5783 5783 5783 5782 5783 5783 5782 5782 5781 5780 5780 5779 5778 5778 5777 5776 5775 5775 5773 5773 5772 5771 5769 5769 5768 5765 5763 5762 5760 5759 5757 5756 5755 5754 5752 5751 5750
5779 5780 5781 5781 5781 5781 5781 5781 5781 5781 5781 5781 5781 5780 5780 5779 5778 5778 5777 5777 5776 5775 5774 5773 5772 5771 5770 5769 5768 5768 5767 5764 5762 5761 5760 5758 5756 5755 5754 5752 5751 5750 5748
5779 5780 5780 5780 5779 5779 5779 5779 5779 5779 5780 5780 5779 5779 5778 5778 5777 5777 5776 5775 5774 5774 5773 5772 5770 5769 5768 5767 5766 5765 5764 5762 5761 5760 5759 5757 5755 5754 5753 5751 5750 5749 5747
5778 5778 5779 5778 5778 5777 5777 5777 5778 5778 5779 5779 5778 5778 5777 5777 5776 5775 5775 5774 5773 5772 5771 5770 5769 5767 5767 5766 5764 5763 5762 5761 5760 5759 5757 5756 5755 5753 5752 5751 5750 5748 5746
5777 5777 5777 5777 5777 5776 5776 5776 5777 5777 5777 5777 5777 5777 5776 5776 5775 5774 5773 5772 5772 5771 5770 5769 5767 5766 5765 5764 5763 5762 5761 5760 5759 5757 5756 5755 5754 5753 5751 5750 5749 5747 5746
5776 5776 5776 5776 5776 5776 5776 5776 5776 5776 5776 5776 5776 5776 5775 5775 5774 5773 5772 5771 5771 5770 5769 5767 5766 5765 5764 5763 5762 5761 5760 5759 5757 5756 5755 5754 5753 5752 5751 5749 5748 5746 5744
5775 5775 5775 5776 5776 5776 5776 5775 5775 5775 5775 5775 5775 5774 5774 5773 5772 5771 5771 5770 5769 5768 5767 5766 5765 5764 5763 5762 5761 5760 5759 5758 5757 5755 5753 5753 5752 5751 5750 5749 5747 5745 5743
5774 5775 5775 5775 5775 5775 5775 5775 5775 5775 5774 5774 5773 5773 5772 5772 5771 5770 5769 5768 5768 5767 5766 5765 5764 5763 5762 5761 5760 5759 5759 5757 5756 5754 5753 5752 5751 5750 5749 5748 5746 5744 5743
5774 5774 5774 5774 5775 5775 5775 5774 5774 5774 5773 5773 5772 5772 5771 5770 5769 5768 5767 5767 5766 5766 5765 5764 5763 5762 5761 5760 5759 5758 5757 5756 5755 5754 5753 5752 5751 5750 5748 5747 5746 5744 5742
5772 5773 5774 5774 5774 5774 5774 5774 5774 5773 5772 5772 5771 5771 5770 5769 5768 5767 5767 5766 5765 5764 5764 5763 5762 5761 5760 5759 5758 5757 5756 5755 5754 5754 5753 5752 5751 5749 5748 5747 5745 5744 5742
5770 5771 5772 5773 5773 5773 5773 5773 5773 5772 5772 5771 5770 5770 5768 5767 5767 5766 5766 5765 5764 5763 5762 5761 5761 5760 5759 5758 5757 5756 5755 5754 5753 5753 5752 5751 5750 5749 5748 5746 5744 5743 5741
5767 5769 5771 5772 5772 5773 5773 5772 5772 5771 5770 5769 5769 5768 5767 5766 5766 5766 5765 5764 5763 5762 5761 5760 5760 5759 5758 5757 5756 5755 5754 5753 5753 5752 5751 5751 5750 5749 5747 5746 5744 5743 5741
5768 5769 5770 5771 5772 5772 5772 5771 5771 5770 5769 5768 5767 5767 5766 5765 5765 5765 5764 5763 5762 5761 5760 5759 5758 5758 5757 5756 5755 5754 5753 5752 5752 5751 5751 5751 5750 5748 5747 5745 5743 5742 5740
5769 5770 5771 5772 5771 5771 5771 5770 5769 5769 5768 5767 5766 5766 5765 5764 5763 5763 5763 5762 5761 5760 5759 5758 5757 5756 5756 5755 5754 5753 5753 5751 5751 5751 5751 5750 5749 5749 5747 5744 5743 5741 5739
5770 5771 5772 5772 5772 5771 5770 5770 5769 5768 5767 5766 5765 5765 5764 5763 5762 5762 5761 5760 5760 5759 5757 5756 5756 5755 5755 5754 5753 5753 5752 5751 5751 5751 5750 5749 5749 5748 5746 5744 5742 5740 5739
5772 5773 5773 5773 5772 5771 5770 5770 5769 5767 5766 5765 5765 5764 5763 5762 5761 5760 5760 5759 5758 5757 5756 5756 5755 5755 5754 5753 5752 5752 5752 5751 5751 5750 5749 5748 5748 5747 5745 5743 5741 5740 5738
5775 5775 5774 5774 5773 5772 5771 5770 5769 5767 5766 5765 5764 5764 5763 5762 5762 5761 5759 5758 5757 5757 5756 5756 5755 5754 5753 5752 5752 5751 5751 5750 5749 5749 5748 5747 5746 5745 5744 5742 5740 5739 5737
5778 5776 5776 5776 5774 5772 5771 5770 5769 5767 5766 5765 5764 5763 5763 5762 5762 5760 5759 5758 5757 5756 5756 5755 5754 5752 5752 5751 5750 5750 5749 5749 5748 5747 5746 5745 5744 5743 5742 5741 5739 5738 5737
5781 5779 5777 5776 5775 5774 5772 5770 5769 5767 5766 5765 5764 5763 5763 5762 5761 5760 5759 5759 5758 5757 5756 5755 5753 5752 5750 5749 5749 5748 5748 5747 5747 5746 5744 5743 5743 5742 5741 5739 5738 5737 5736
5783 5781 5779 5777 5776 5774 5772 5770 5768 5767 5766 5765 5764 5763 5763 5762 5762 5761 5760 5760 5759 5757 5756 5755 5753 5752 5750 5749 5749 5747 5746 5746 5745 5744 5743 5742 5741 5740 5739 5738 5737 5736 5735
5784 5782 5780 5777 5776 5775 5772 5769 5766 5765 5765 5765 5765 5764 5763 5763 5762 5762 5761 5760 5759 5758 5756 5755 5753 5750 5748 5748 5745 5742 5743 5744 5744 5743 5742 5741 5740 5739 5738 5737 5736 5734 5733
5785 5784 5782 5779 5778 5776 5775 5772 5770 5768 5767 5766 5766 5765 5764 5763 5763 5762 5761 5760 5759 5758 5756 5755 5753 5750 5748 5748 5744 5739 5735 5737 5740 5742 5741 5740 5739 5737 5737 5736 5734 5733 5732
5787 5786 5786 5782 5780 5778 5777 5774 5771 5769 5767 5765 5765 5764 5765 5764 5763 5763 5762 5761 5760 5759 5757 5755 5754 5751 5747 5746 5746 5741 5734 5730 5733 5736 5737 5737 5736 5736 5735 5734 5733 5732 5730
5790 5789 5787 5785 5782 5780 5778 5775 5771 5767 5764 5764 5765 5765 5765 5765 5764 5764 5763 5762 5761 5759 5758 5757 5755 5753 5750 5745 5744 5743 5741 5737 5731 5729 5733 5734 5734 5733 5733 5732 5732 5731 5729
5794 5791 5789 5786 5783 5782 5779 5777 5773 5769 5768 5767 5767 5765 5765 5765 5765 5764 5763 5763 5761 5760 5759 5757 5755 5753 5751 5747 5744 5742 5739 5736 5734 5729 5726 5728 5730 5731 5731 5730 5729 5729 5728
5796 5793 5790 5786 5784 5783 5781 5778 5775 5772 5770 5767 5766 5765 5764 5764 5764 5764 5763 5762 5761 5760 5758 5757 5755 5753 5751 5748 5746 5743 5739 5736 5732 5729 5726 5724 5725 5728 5729 5728 5727 5726 5726